This is the latest recevied weather packets stored in our database for station/object M0SDM-10. If no packets are shown the sender has not sent any weather packets the latest 10 day(s).
| Time | Temp. | Humidity | Pressure | Rain* | Wind** | Luminosity | Snow |
|---|---|---|---|---|---|---|---|
| 1778072321 | 12.22° C | 68% | 1004.2 hPa | - | - | - | - |
| 1778070521 | 11.67° C | 67% | 1003.9 hPa | - | - | - | - |
| 1778068721 | 11.67° C | 69% | 1004.1 hPa | - | - | - | - |
| 1778066921 | 11.67° C | 70% | 1004.2 hPa | - | - | - | - |
| 1778065120 | 11.67° C | 70% | 1004.3 hPa | - | - | - | - |
| 1778063320 | 11.67° C | 71% | 1004.1 hPa | - | - | - | - |
| 1778061520 | 11.11° C | 70% | 1004.1 hPa | - | - | - | - |
| 1778059720 | 11.11° C | 71% | 1004.1 hPa | - | - | - | - |
| 1778057920 | 11.11° C | 71% | 1004.4 hPa | - | - | - | - |
| 1778056120 | 10.56° C | 71% | 1004.4 hPa | - | - | - | - |
| 1778054317 | 10.56° C | 71% | 1004.4 hPa | - | - | - | - |
| 1778052516 | 10.56° C | 71% | 1004.2 hPa | - | - | - | - |
| 1778050715 | 10.56° C | 71% | 1004.1 hPa | - | - | - | - |
| 1778048913 | 10.56° C | 71% | 1003.9 hPa | - | - | - | - |
| 1778047110 | 10.56° C | 71% | 1003.9 hPa | - | - | - | - |
| 1778045310 | 10.56° C | 71% | 1003.7 hPa | - | - | - | - |
| 1778043507 | 10.56° C | 71% | 1003.5 hPa | - | - | - | - |
| 1778041707 | 10.56° C | 71% | 1003.5 hPa | - | - | - | - |
| 1778039907 | 11.11° C | 71% | 1003.7 hPa | - | - | - | - |
| 1778038107 | 11.11° C | 71% | 1003.8 hPa | - | - | - | - |
| 1778036307 | 11.11° C | 71% | 1003.9 hPa | - | - | - | - |
| 1778034504 | 11.11° C | 70% | 1003.8 hPa | - | - | - | - |
| 1778032704 | 11.67° C | 70% | 1004.1 hPa | - | - | - | - |
| 1778030904 | 11.67° C | 70% | 1004.2 hPa | - | - | - | - |
| 1778029104 | 11.67° C | 70% | 1004.2 hPa | - | - | - | - |
* Rain since midnight (hover to see other rain measurements)
** Current wind speed in m/s (hover to see current wind gust speed)